H1 CPF 2 NER 2022 3 22 9 081 01 glonass121 H2 1000702 9121 36401 2022 3 22 0 0 0 2022 3 25 23 45 0 900 1 1 0 0 0 1 H9 10 0 59660 0.00000 0 -24886749.924 -642964.481 -5317415.523 10 0 59660 900.00000 0 -25362131.478 -469739.685 -2104806.726 10 0 59660 1800.00000 0 -25424537.513 -253994.930 1148953.450 10 0 59660 2700.00000 0 -25071110.457 -53497.344 4380243.660 10 0 59660 3600.00000 0 -24312960.439 74759.379 7525865.691 10 0 59660 4500.00000 0 -23174717.319 77234.135 10524307.779 10 0 59660 5400.00000 0 -21693525.268 -93631.849 13316973.091 10 0 59660 6300.00000 0 -19917523.438 -477145.226 15849346.617 10 0 59660 7200.00000 0 -17903878.766 -1102449.498 18072075.415 10 0 59660 8100.00000 0 -15716456.283 -1987055.472 19941939.559 10 0 59660 9000.00000 0 -13423227.548 -3135876.259 21422694.157 10 0 59660 9900.00000 0 -11093528.609 -4540807.442 22485766.032 10 0 59660 10800.00000 0 -8795284.299 -6180869.293 23110792.481 10 0 59660 11700.00000 0 -6592316.138 -8022903.523 23285993.196 10 0 59660 12600.00000 0 -4541846.436 -10022793.486 23008370.213 10 0 59660 13500.00000 0 -2692301.676 -12127154.749 22283734.425 10 0 59660 14400.00000 0 -1081504.670 -14275423.665 21126560.675 10 0 59660 15300.00000 0 264672.153 -16402255.369 19559676.632 10 0 59660 16200.00000 0 1333139.833 -18440130.502 17613793.656 10 0 59660 17100.00000 0 2123881.660 -20322062.098 15326890.450 10 0 59660 18000.00000 0 2649689.483 -21984290.550 12743462.762 10 0 59660 18900.00000 0 2935362.274 -23368855.869 9913654.364 10 0 59660 19800.00000 0 3016403.464 -24425941.968 6892286.323 10 0 59660 20700.00000 0 2937273.787 -25115897.589 3737803.100 10 0 59660 21600.00000 0 2749274.203 -25410851.979 511155.041 10 0 59660 22500.00000 0 2508148.022 -25295860.054 -2725362.273 10 0 59660 23400.00000 0 2271502.514 -24769531.086 -5909290.834 10 0 59660 24300.00000 0 2096157.228 -23844115.724 -8979194.031 10 0 59660 25200.00000 0 2035529.026 -22545048.249 -11875820.491 10 0 59660 26100.00000 0 2137162.181 -20909962.713 -14543227.289 10 0 59660 27000.00000 0 2440505.981 -18987222.893 -16929842.659 10 0 59660 27900.00000 0 2975032.349 -16834025.380 -18989449.373 10 0 59660 28800.00000 0 3758772.375 -14514152.435 -20682071.025 10 0 59660 29700.00000 0 4797333.942 -12095465.472 -21974745.114 10 0 59660 30600.00000 0 6083443.353 -9647240.705 -22842168.394 10 0 59660 31500.00000 0 7597032.698 -7237455.331 -23267201.815 10 0 59660 32400.00000 0 9305872.680 -4930135.059 -23241224.552 10 0 59660 33300.00000 0 11166728.241 -2782871.899 -22764328.825 10 0 59660 34200.00000 0 13126992.536 -844615.060 -21845349.797 10 0 59660 35100.00000 0 15126734.688 846172.894 -20501727.545 10 0 59660 36000.00000 0 17101078.789 2262916.693 -18759201.096 10 0 59660 36900.00000 0 18982816.797 3391825.766 -16651337.746 10 0 59660 37800.00000 0 20705147.030 4232248.973 -14218904.268 10 0 59660 38700.00000 0 22204423.383 4796469.943 -11509090.064 10 0 59660 39600.00000 0 23422798.608 5108949.983 -8574595.966 10 0 59660 40500.00000 0 24310648.402 5205049.520 -5472605.733 10 0 59660 41400.00000 0 24828671.464 5129281.847 -2263660.441 10 0 59660 42300.00000 0 24949573.874 4933173.762 989541.061 10 0 59660 43200.00000 0 24659263.818 4672825.425 4223390.436 10 0 59660 44100.00000 0 23957503.728 4406275.386 7374639.990 10 0 59660 45000.00000 0 22857990.635 4190785.656 10381666.923 10 0 59660 45900.00000 0 21387860.677 4080165.425 13185704.107 10 0 59660 46800.00000 0 19586639.015 4122250.250 15732010.607 10 0 59660 47700.00000 0 17504680.759 4356646.463 17970956.746 10 0 59660 48600.00000 0 15201170.589 4812838.534 19859000.975 10 0 59660 49500.00000 0 12741767.565 5508740.743 21359538.698 10 0 59660 50400.00000 0 10195996.530 6449754.655 22443606.500 10 0 59660 51300.00000 0 7634497.515 7628371.547 23090428.964 10 0 59660 52200.00000 0 5126249.625 9024335.215 23287798.978 10 0 59660 53100.00000 0 2735885.994 10605356.377 23032286.212 10 0 59660 54000.00000 0 521211.237 12328346.641 22329272.133 10 0 59660 54900.00000 0 -1468976.742 14141118.252 21192813.377 10 0 59660 55800.00000 0 -3196672.383 15984476.759 19645338.580 10 0 59660 56700.00000 0 -4635984.567 17794617.925 17717186.703 10 0 59660 57600.00000 0 -5773944.005 19505728.247 15445997.556 10 0 59660 58500.00000 0 -6610766.249 21052680.730 12875967.653 10 0 59660 59400.00000 0 -7159563.278 22373714.236 10056986.574 10 0 59660 60300.00000 0 -7445519.217 23412986.201 7043670.722 10 0 59660 61200.00000 0 -7504567.339 24122894.025 3894312.999 10 0 59660 62100.00000 0 -7381625.654 24466070.305 669767.910 10 0 59660 63000.00000 0 -7128466.062 24416970.852 -2567707.494 10 0 59660 63900.00000 0 -6801306.404 23962990.774 -5755635.815 10 0 59660 64800.00000 0 -6458225.877 23105063.298 -8832503.534 10 0 59660 65700.00000 0 -6156511.098 21857717.045 -11738926.293 10 0 59660 66600.00000 0 -5950042.733 20248589.076 -14418774.496 10 0 59660 67500.00000 0 -5886830.888 18317413.074 -16820239.397 10 0 59660 68400.00000 0 -6006801.535 16114522.958 -18896820.750 10 0 59660 69300.00000 0 -6339926.165 13698931.896 -20608218.223 10 0 59660 70200.00000 0 -6904773.227 11136063.785 -21921110.369 10 0 59660 71100.00000 0 -7707543.105 8495228.521 -22809806.546 10 0 59660 72000.00000 0 -8741628.912 5846943.162 -23256758.994 10 0 59660 72900.00000 0 -9987724.251 3260207.736 -23252924.440 10 0 59660 73800.00000 0 -11414476.771 799846.926 -22797966.860 10 0 59660 74700.00000 0 -12979663.844 -1475972.910 -21900295.494 10 0 59660 75600.00000 0 -14631844.821 -3517948.483 -20576935.036 10 0 59660 76500.00000 0 -16312424.032 -5287473.735 -18853227.810 10 0 59660 77400.00000 0 -17958040.648 -6758025.652 -16762371.010 10 0 59660 78300.00000 0 -19503186.847 -7916042.127 -14344795.442 10 0 59660 79200.00000 0 -20882944.854 -8761253.280 -11647395.652 10 0 59660 80100.00000 0 -22035727.095 -9306450.458 -8722624.975 10 0 59660 81000.00000 0 -22905902.398 -9576701.351 -5627472.369 10 0 59660 81900.00000 0 -23446194.989 -9608043.699 -2422341.109 10 0 59660 82800.00000 0 -23619751.924 -9445712.927 830147.670 10 0 59660 83700.00000 0 -23401788.514 -9141979.969 4066401.416 10 0 59660 84600.00000 0 -22780739.216 -8753692.912 7223125.820 10 0 59660 85500.00000 0 -21758863.121 -8339629.488 10238589.958 10 0 59661 0.00000 0 -20352277.136 -7957775.978 13053859.057 10 0 59661 900.00000 0 -18590414.218 -7662651.060 15613969.551 10 0 59661 1800.00000 0 -16514932.114 -7502791.605 17869017.355 10 0 59661 2700.00000 0 -14178117.461 -7518508.722 19775141.586 10 0 59661 3600.00000 0 -11640856.197 -7740011.184 21295379.857 10 0 59661 4500.00000 0 -8970257.096 -8185975.983 22400379.980 10 0 59661 5400.00000 0 -6237030.317 -8862626.094 23068954.816 10 0 59661 6300.00000 0 -3512732.237 -9763353.122 23288470.988 10 0 59661 7200.00000 0 -866992.706 -10868898.842 23055065.915 10 0 59661 8100.00000 0 1635159.702 -12148085.745 22373691.365 10 0 59661 9000.00000 0 3935764.075 -13559063.597 21257985.183 10 0 59661 9900.00000 0 5986084.465 -15051017.514 19729976.100 10 0 59661 10800.00000 0 7748371.291 -16566264.319 17819629.559 10 0 59661 11700.00000 0 9197157.111 -18042648.314 15564245.117 10 0 59661 12600.00000 0 10320036.664 -19416135.830 13007718.461 10 0 59661 13500.00000 0 11117902.693 -20623500.395 10199683.133 10 0 59661 14400.00000 0 11604631.414 -21604987.286 7194548.808 10 0 59661 15300.00000 0 11806233.872 -22306847.524 4050454.550 10 0 59661 16200.00000 0 11759511.155 -22683637.337 828156.576 10 0 59661 17100.00000 0 11510271.228 -22700188.873 -2410129.155 10 0 59661 18000.00000 0 11111182.625 -22333171.457 -5601908.492 10 0 59661 18900.00000 0 10619354.820 -21572179.676 -8685593.699 10 0 59661 19800.00000 0 10093745.723 -20420303.377 -11601670.110 10 0 59661 20700.00000 0 9592503.740 -18894155.887 -14293824.101 10 0 59661 21600.00000 0 9170354.267 -17023358.611 -16710012.511 10 0 59661 22500.00000 0 8876138.727 -14849501.612 -18803454.500 10 0 59661 23400.00000 0 8750608.190 -12424621.266 -20533528.033 10 0 59661 24300.00000 0 8824563.588 -9809255.369 -21866554.673 10 0 59661 25200.00000 0 9117420.703 -7070153.386 -22776458.002 10 0 59661 26100.00000 0 9636261.208 -4277733.776 -23245282.792 10 0 59661 27000.00000 0 10375411.498 -1503391.006 -23263564.191 10 0 59661 27900.00000 0 11316569.719 1183238.427 -22830538.411 10 0 59661 28800.00000 0 12429478.907 3716939.033 -21954188.892 10 0 59661 29700.00000 0 13673121.513 6039398.681 -20651124.731 10 0 59661 30600.00000 0 14997388.593 8101406.970 -18946291.004 10 0 59661 31500.00000 0 16345156.441 9864677.096 -16872513.931 10 0 59661 32400.00000 0 17654685.533 11303213.723 -14469887.124 10 0 59661 33300.00000 0 18862241.923 12404167.810 -11785008.683 10 0 59661 34200.00000 0 19904830.606 13168140.517 -8870082.454 10 0 59661 35100.00000 0 20722924.391 13608921.826 -5781900.225 10 0 59661 36000.00000 0 21263070.912 13752673.767 -2580724.732 10 0 59661 36900.00000 0 21480264.707 13636592.353 670903.614 10 0 59661 37800.00000 0 21339980.844 13307105.451 3909411.264 10 0 59661 38700.00000 0 20819780.845 12817684.402 7071460.597 10 0 59661 39600.00000 0 19910420.167 12226364.478 10095215.854 10 0 59661 40500.00000 0 18616408.377 11593082.257 12921578.293 10 0 59661 41400.00000 0 16955997.115 10976946.000 15495363.709 10 0 59661 42300.00000 0 14960596.312 10433557.879 17766396.916 10 0 59661 43200.00000 0 12673643.969 10012504.156 19690500.193 10 0 59661 44100.00000 0 10148978.599 9755121.478 21230355.544 10 0 59661 45000.00000 0 7448784.701 9692634.745 22356223.832 10 0 59661 45900.00000 0 4641199.447 9844745.139 23046507.632 10 0 59661 46800.00000 0 1797682.574 10218726.907 23288148.282 10 0 59661 47700.00000 0 -1009739.361 10809069.109 23076851.445 10 0 59661 48600.00000 0 -3711238.925 11597675.030 22417139.166 10 0 59661 49500.00000 0 -6241849.288 12554608.256 21322229.931 10 0 59661 50400.00000 0 -8543911.805 13639351.438 19813751.474 10 0 59661 51300.00000 0 -10569210.316 14802522.675 17921294.135 10 0 59661 52200.00000 0 -12280706.537 15987975.818 15681815.213 10 0 59661 53100.00000 0 -13653807.860 17135195.604 13138907.228 10 0 59661 54000.00000 0 -14677118.715 18181887.037 10341945.112 10 0 59661 54900.00000 0 -15352647.910 19066651.003 7345129.077 10 0 59661 55800.00000 0 -15695466.650 19731635.118 4206441.546 10 0 59661 56700.00000 0 -15732834.343 20125050.421 986537.587 10 0 59661 57600.00000 0 -15502830.660 20203450.256 -2252410.797 10 0 59661 58500.00000 0 -15052552.135 19933677.736 -5447895.548 10 0 59661 59400.00000 0 -14435948.989 19294401.697 -8538257.504 10 0 59661 60300.00000 0 -13711392.191 18277177.803 -11463854.388 10 0 59661 61200.00000 0 -12939071.526 16886990.871 -14168191.104 10 0 59661 62100.00000 0 -12178332.088 15142255.081 -16598992.411 10 0 59661 63000.00000 0 -11485059.094 13074270.690 -18709198.971 10 0 59661 63900.00000 0 -10909219.090 10726157.744 -20457868.833 10 0 59661 64800.00000 0 -10492659.407 8151308.205 -21810968.042 10 0 59661 65700.00000 0 -10267257.652 5411417.563 -22742035.549 10 0 59661 66600.00000 0 -10253499.083 2574174.329 -23232709.466 10 0 59661 67500.00000 0 -10459542.690 -289300.069 -23273103.817 10 0 59661 68400.00000 0 -10880817.110 -3107157.661 -22862027.126 10 0 59661 69300.00000 0 -11500166.008 -5809566.416 -22007036.746 10 0 59661 70200.00000 0 -12288539.895 -8331376.399 -20724325.487 10 0 59661 71100.00000 0 -13206208.547 -10614599.241 -19038440.120 10 0 59661 72000.00000 0 -14204445.983 -12610597.218 -16981834.472 10 0 59661 72900.00000 0 -15227619.520 -14281889.439 -14594263.248 10 0 59661 73800.00000 0 -16215596.386 -15603497.913 -11922026.118 10 0 59661 74700.00000 0 -17106366.861 -16563774.999 -9017075.284 10 0 59661 75600.00000 0 -17838772.502 -17164675.567 -5936003.047 10 0 59661 76500.00000 0 -18355222.406 -17421460.847 -2738929.187 10 0 59661 77400.00000 0 -18604280.000 -17361845.522 511689.130 10 0 59661 78300.00000 0 -18543007.699 -17024624.106 3752299.970 10 0 59661 79200.00000 0 -18138966.802 -16457835.633 6919525.101 10 0 59661 80100.00000 0 -17371784.794 -15716546.207 9951426.687 10 0 59661 81000.00000 0 -16234221.130 -14860345.949 12788744.542 10 0 59661 81900.00000 0 -14732684.600 -13950669.391 15376077.043 10 0 59661 82800.00000 0 -12887179.615 -13048055.961 17662980.200 10 0 59661 83700.00000 0 -10730683.790 -12209469.384 19604961.775 10 0 59661 84600.00000 0 -8307983.970 -11485791.624 21164350.149 10 0 59661 85500.00000 0 -5674021.272 -10919598.631 22311020.835 10 0 59662 0.00000 0 -2891816.672 -10543312.166 23022967.236 10 0 59662 900.00000 0 -30064.316 -10377804.742 23286706.262 10 0 59662 1800.00000 0 2839501.526 -10431515.253 23097512.041 10 0 59662 2700.00000 0 5644860.133 -10700109.432 22459476.819 10 0 59662 3600.00000 0 8316460.142 -11166697.108 21385399.304 10 0 59662 4500.00000 0 10789865.070 -11802593.876 19896505.514 10 0 59662 5400.00000 0 13008180.023 -12568592.439 18022009.695 10 0 59662 6300.00000 0 14924161.322 -13416687.849 15798525.620 10 0 59662 7200.00000 0 16501924.370 -14292182.536 13269341.105 10 0 59662 8100.00000 0 17718182.366 -15136081.848 10483570.644 10 0 59662 9000.00000 0 18562967.834 -15887679.429 7495202.866 10 0 59662 9900.00000 0 19039810.415 -16487224.577 4362061.149 10 0 59662 10800.00000 0 19165366.480 -16878560.908 1144696.787 10 0 59662 11700.00000 0 18968518.250 -17011627.180 -2094764.976 10 0 59662 12600.00000 0 18488981.600 -16844717.172 -5293805.075 10 0 59662 13500.00000 0 17775481.241 -16346405.388 -8390695.831 10 0 59662 14400.00000 0 16883569.432 -15497059.106 -11325670.212 10 0 59662 15300.00000 0 15873178.517 -14289874.080 -14042054.396 10 0 59662 16200.00000 0 14806008.212 -12731390.345 -16487343.662 10 0 59662 17100.00000 0 13742855.191 -10841465.490 -18614202.563 10 0 59662 18000.00000 0 12740994.882 -8652704.512 -20381371.400 10 0 59662 18900.00000 0 11851723.504 -6209367.324 -21754462.574 10 0 59662 19800.00000 0 11118162.146 -3565796.004 -22706631.948 10 0 59662 20700.00000 0 10573414.428 -784423.638 -23219112.145 10 0 59662 21600.00000 0 10239155.282 2066556.242 -23281596.831 10 0 59662 22500.00000 0 10124711.226 4915766.247 -22892467.226 10 0 59662 23400.00000 0 10226672.655 7691363.491 -22058854.572 10 0 59662 24300.00000 0 10529056.957 10323788.867 -20796535.012 10 0 59662 25200.00000 0 11004018.445 12748434.002 -19129656.271 10 0 59662 26100.00000 0 11613078.094 14908114.872 -17090298.710 10 0 59662 27000.00000 0 12308823.753 16755248.128 -14717876.713 10 0 59662 27900.00000 0 13037010.981 18253637.616 -12058389.776 10 0 59662 28800.00000 0 13738976.681 19379794.174 -9163536.353 10 0 59662 29700.00000 0 14354263.356 20123731.159 -6089706.839 10 0 59662 30600.00000 0 14823341.690 20489200.267 -2896875.328 10 0 59662 31500.00000 0 15090313.933 20493356.210 352587.232 10 0 59662 32400.00000 0 15105480.614 20165863.777 3595153.642 10 0 59662 33300.00000 0 14827658.459 19547485.275 6767408.246 10 0 59662 34200.00000 0 14226147.938 18688209.354 9807314.287 10 0 59662 35100.00000 0 13282264.070 17645002.499 12655453.183 10 0 59662 36000.00000 0 11990363.370 16479281.094 15256208.760 10 0 59662 36900.00000 0 10358322.026 15254214.056 17558870.864 10 0 59662 37800.00000 0 8407444.629 14031973.053 19518635.116 10 0 59662 38700.00000 0 6171807.647 12871049.015 21097478.350 10 0 59662 39600.00000 0 3697066.461 11823749.981 22264892.465 10 0 59662 40500.00000 0 1038777.664 10933986.570 22998463.142 10 0 59662 41400.00000 0 -1739691.323 10235438.023 23284283.538 10 0 59662 42300.00000 0 -4569576.114 9750174.656 23117196.874 10 0 59662 43200.00000 0 -7379350.788 9487792.347 22500865.549 10 0 59662 44100.00000 0 -10097474.445 9445092.487 21447667.905 10 0 59662 45000.00000 0 -12655134.741 9606317.558 19978427.127 10 0 59662 45900.00000 0 -14988875.416 9943929.127 18121979.735 10 0 59662 46800.00000 0 -17043000.532 10419892.600 15914593.907 10 0 59662 47700.00000 0 -18771658.048 10987412.359 13399250.319 10 0 59662 48600.00000 0 -20140519.196 11593042.733 10624800.341 10 0 59662 49500.00000 0 -21127987.218 12179085.304 7645018.182 10 0 59662 50400.00000 0 -21725888.396 12686171.871 4517565.271 10 0 59662 51300.00000 0 -21939619.560 13055925.234 1302886.222 10 0 59662 52200.00000 0 -21787748.578 13233587.425 -1936943.344 10 0 59662 53100.00000 0 -21301086.035 13170506.523 -5139396.163 10 0 59662 54000.00000 0 -20521267.792 12826379.230 -8242678.778 10 0 59662 54900.00000 0 -19498907.849 12171156.593 -11186902.056 10 0 59662 55800.00000 0 -18291397.869 11186533.813 -13915215.966 10 0 59662 56700.00000 0 -16960444.049 9866961.946 -16374888.644 10 0 59662 57600.00000 0 -15569442.441 8220138.507 -18518310.626 10 0 59662 58500.00000 0 -14180800.423 6266954.865 -20303906.241 10 0 59662 59400.00000 0 -12853314.351 4040900.208 -21696935.660 10 0 59662 60300.00000 0 -11639711.373 1586943.674 -22670172.675 10 0 59662 61200.00000 0 -10584457.187 -1040062.368 -23204445.021 10 0 59662 62100.00000 0 -9721921.072 -3777395.421 -23289026.189 10 0 59662 63000.00000 0 -9074975.447 -6556812.419 -22921869.857 10 0 59662 63900.00000 0 -8654089.904 -9307141.334 -22109680.516 10 0 59662 64800.00000 0 -8456959.595 -11957009.744 -20867816.619 10 0 59662 65700.00000 0 -8468685.961 -14437598.536 -19220025.471 10 0 59662 66600.00000 0 -8662504.767 -16685306.626 -17198012.294 10 0 59662 67500.00000 0 -9001033.220 -18644215.212 -14840849.234 10 0 59662 68400.00000 0 -9437985.522 -20268247.289 -12194233.521 10 0 59662 69300.00000 0 -9920285.647 -21522930.015 -9309607.661 10 0 59662 70200.00000 0 -10390488.219 -22386683.657 -6243157.888 10 0 59662 71100.00000 0 -10789404.242 -22851580.644 -3054710.332 10 0 59662 72000.00000 0 -11058818.586 -22923540.693 193452.553 10 0 59662 72900.00000 0 -11144181.384 -22621952.529 3437830.609 10 0 59662 73800.00000 0 -10997155.964 -21978737.692 6614973.091 10 0 59662 74700.00000 0 -10577911.841 -21036896.608 9662746.682 10 0 59662 75600.00000 0 -9857062.296 -19848599.880 12521576.780 10 0 59662 76500.00000 0 -8817161.678 -18472907.830 15135635.007 10 0 59662 77400.00000 0 -7453697.078 -16973217.487 17453947.297 10 0 59662 78300.00000 0 -5775531.375 -15414547.813 19431399.211 10 0 59662 79200.00000 0 -3804778.779 -13860780.421 21029617.873 10 0 59662 80100.00000 0 -1576118.827 -12371974.260 22217713.091 10 0 59662 81000.00000 0 864421.008 -11001868.541 22972863.944 10 0 59662 81900.00000 0 3461161.429 -9795679.101 23280740.760 10 0 59662 82800.00000 0 6150873.287 -8788279.889 23135756.190 10 0 59662 83700.00000 0 8865196.160 -8002843.909 22541142.847 10 0 59662 84600.00000 0 11533271.659 -7449997.822 21508858.457 10 0 59662 85500.00000 0 14084481.359 -7127522.305 20059322.811 10 0 59663 0.00000 0 16451175.724 -7020607.059 18220994.059 10 0 59663 900.00000 0 18571283.086 -7102646.266 16029793.352 10 0 59663 1800.00000 0 20390688.969 -7336538.071 13528393.005 10 0 59663 2700.00000 0 21865293.745 -7676430.938 10765379.595 10 0 59663 3600.00000 0 22962662.720 -8069842.094 7794310.948 10 0 59663 4500.00000 0 23663204.342 -8460058.243 4672684.278 10 0 59663 5400.00000 0 23960830.228 -8788717.798 1460834.981 10 0 59663 6300.00000 0 23863072.061 -8998466.935 -1779213.704 10 0 59663 7200.00000 0 23390652.283 -9035579.165 -4984929.205 10 0 59663 8100.00000 0 22576527.825 -8852429.940 -8094455.236 10 0 59663 9000.00000 0 21464446.919 -8409723.813 -11047783.464 10 0 59663 9900.00000 0 20107078.858 -7678381.885 -13787890.440 10 0 59663 10800.00000 0 18563793.667 -6641011.046 -16261819.772 10 0 59663 11700.00000 0 16898182.436 -5292893.180 -18421690.387 10 0 59663 12600.00000 0 15175419.786 -3642451.906 -20225612.821 10 0 59663 13500.00000 0 13459576.328 -1711175.335 -21638496.941 10 0 59663 14400.00000 0 11810991.236 467004.862 -22632736.097 10 0 59663 15300.00000 0 10283813.066 2846855.597 -23188754.443 10 0 59663 16200.00000 0 8923810.510 5373462.091 -23295406.243 10 0 59663 17100.00000 0 7766544.326 7984261.768 -22950218.189 10 0 59663 18000.00000 0 6835977.473 10611411.286 -22159468.168 10 0 59663 18900.00000 0 6143582.941 13184391.392 -20938096.683 10 0 59663 19800.00000 0 5687988.507 15632743.374 -19309449.952 10 0 59663 20700.00000 0 5455175.607 17888824.248 -17304856.993 10 0 59663 21600.00000 0 5419226.182 19890465.847 -14963046.255 10 0 59663 22500.00000 0 5543588.015 21583425.773 -12329410.870 10 0 59663 23400.00000 0 5782806.609 22923525.741 -9455135.205 10 0 59663 24300.00000 0 6084650.941 23878385.298 -6396198.789 10 0 59663 25200.00000 0 6392542.757 24428675.454 -3212276.968 10 0 59663 26100.00000 0 6648185.070 24568836.991 34439.369 10 0 59663 27000.00000 0 6794276.071 24307231.268 3280480.312 10 0 59663 27900.00000 0 6777190.335 23665715.986 6462363.284 10 0 59663 28800.00000 0 6549510.164 22678663.669 9517861.640 10 0 59663 29700.00000 0 6072296.292 21391465.161 12387247.859 10 0 59663 30600.00000 0 5316998.601 19858583.103 15014484.279 10 0 59663 31500.00000 0 4266923.515 18141240.012 17348335.602 10 0 59663 32400.00000 0 2918194.366 16304841.320 19343379.741 10 0 59663 33300.00000 0 1280163.523 14416244.737 20960896.201 10 0 59663 34200.00000 0 -624740.854 12540993.335 22169614.460 10 0 59663 35100.00000 0 -2761726.001 10740630.334 22946308.372 10 0 59663 36000.00000 0 -5084872.323 9070209.013 23276226.379 10 0 59663 36900.00000 0 -7538844.071 7576101.836 23153351.037 10 0 59663 37800.00000 0 -10060999.678 6294199.067 22580485.131 10 0 59663 38700.00000 0 -12583812.279 5248569.745 21569165.182 10 0 59663 39600.00000 0 -15037498.576 4450637.909 20139406.453 10 0 59663 40500.00000 0 -17352746.442 3898904.725 18319286.686 10 0 59663 41400.00000 0 -19463428.412 3579224.320 16144378.515 10 0 59663 42300.00000 0 -21309189.469 3465618.138 13657043.029 10 0 59663 43200.00000 0 -22837803.537 3521590.528 10905599.145 10 0 59663 44100.00000 0 -24007203.158 3701887.990 7943385.228 10 0 59663 45000.00000 0 -24787100.516 3954626.743 4827731.117 10 0 59663 45900.00000 0 -25160135.154 4223698.628 1618859.814 10 0 59663 46800.00000 0 -25122503.030 4451354.519 -1621260.943 10 0 59663 47700.00000 0 -24684042.633 4580857.580 -4830096.309 10 0 59663 48600.00000 0 -23867775.934 4559096.223 -7945730.082 10 0 59663 49500.00000 0 -22708923.757 4339048.436 -10908037.517 10 0 59663 50400.00000 0 -21253436.515 3881995.458 -13659824.378 10 0 59663 51300.00000 0 -19556100.460 3159392.794 -16147912.172 10 0 59663 52200.00000 0 -17678296.754 2154320.469 -18324150.379 10 0 59663 53100.00000 0 -15685504.646 862451.291 -20146337.537 10 0 59663 54000.00000 0 -13644650.333 -707504.936 -21579034.576 10 0 59663 54900.00000 0 -11621409.682 -2533902.145 -22594255.290 10 0 59663 55800.00000 0 -9677575.176 -4582802.604 -23172020.609 10 0 59663 56700.00000 0 -7868595.268 -6809142.250 -23300765.404 10 0 59663 57600.00000 0 -6241387.892 -9158372.205 -22977588.707 10 0 59663 58500.00000 0 -4832519.367 -11568511.920 -22208340.668 10 0 59663 59400.00000 0 -3666825.460 -13972531.969 -21007542.279 10 0 59663 60300.00000 0 -2756533.664 -16300969.930 -19398136.772 10 0 59663 61200.00000 0 -2100925.365 -18484671.967 -17411074.774 10 0 59663 62100.00000 0 -1686554.123 -20457546.317 -15084738.659 10 0 59663 63000.00000 0 -1488012.841 -22159213.094 -12464214.958 10 0 59663 63900.00000 0 -1469219.067 -23537437.854 -9600427.352 10 0 59663 64800.00000 0 -1585165.024 -24550244.623 -6549146.148 10 0 59663 65700.00000 0 -1784058.316 -25167616.833 -3369893.449 10 0 59663 66600.00000 0 -2009761.712 -25372711.782 -124766.225 10 0 59663 67500.00000 0 -2204426.598 -25162534.931 3122798.131 10 0 59663 68400.00000 0 -2311205.677 -24548043.788 6309287.388 10 0 59663 69300.00000 0 -2276926.551 -23553676.029 9372383.667 10 0 59663 70200.00000 0 -2054609.300 -22216321.887 12252208.550 10 0 59663 71100.00000 0 -1605717.997 -20583785.244 14892517.004 10 0 59663 72000.00000 0 -902047.979 -18712800.313 17241814.289 10 0 59663 72900.00000 0 72833.038 -16666689.999 19254372.254 10 0 59663 73800.00000 0 1322652.070 -14512767.217 20891124.150 10 0 59663 74700.00000 0 2838045.718 -12319591.024 22120420.187 10 0 59663 75600.00000 0 4596738.342 -10154194.774 22918629.732 10 0 59663 76500.00000 0 6564274.774 -8079403.671 23270579.752 10 0 59663 77400.00000 0 8695275.031 -6151354.254 23169822.785 10 0 59663 78300.00000 0 10935156.648 -4417318.586 22618731.569 10 0 59663 79200.00000 0 13222250.913 -2913922.053 21628420.917 10 0 59663 80100.00000 0 15490223.324 -1665826.308 20218500.820 10 0 59663 81000.00000 0 17670696.603 -684928.767 18416667.843 10 0 59663 81900.00000 0 19695967.044 29891.888 16258144.607 10 0 59663 82800.00000 0 21501701.721 492477.480 13784979.776 10 0 59663 83700.00000 0 23029505.739 728555.539 11045223.040 10 0 59663 84600.00000 0 24229254.572 774405.932 8091991.526 10 0 59663 85500.00000 0 25061096.715 675087.068 4982445.679 99